Weather History for KMMK - January, 2014

Change the Weather History Date:

Monday, January 27, 2014

  Actual Average (KHVN) Record (KHVN)
Temperature  
Mean Temperature 32 °F -  
Max Temperature 42 °F 34 °F 66 °F (1974)
Min Temperature 21 °F 21 °F 3 °F (2003)
Degree Days  
Heating Degree Days 34    
Moisture  
Dew Point 13 °F    
Average Humidity 56    
Maximum Humidity 78    
Minimum Humidity 26    
Precipitation  
Precipitation 0.00 in - - ()
Sea Level Pressure  
Sea Level Pressure 29.77 in    
Wind  
Wind Speed 5 mph (WNW)    
Max Wind Speed 17 mph    
Max Gust Speed 24 mph    
Visibility 10 miles    
Events Rain    
Averages and records for this station are not official NWS values.
T = Trace of Precipitation, MM = Missing Value Source: NWS Daily Summary

Daily Weather History Graph

Daily Weather History Graph

Search for Another Location

Airport or City:

Trip Planner

Search our weather history database for the weather conditions in past years. The results will help you decide how hot, cold, wet, or windy it might be!

Date:

Astronomy

Jan. 27, 2014 Rise Set
Actual Time 7:07 AM EST 5:00 PM EST
Civil Twilight 6:37 AM EST 5:30 PM EST
Nautical Twilight 6:04 AM EST 6:04 PM EST
Astronomical Twilight 5:31 AM EST 6:36 PM EST
Moon 3:46 AM EST (1/27) 1:43 PM EST (1/27)
Length of Visible Light 10h 52m
Length of Day
9h 53m
Waning Crescent, 15% of the Moon is Illuminated
Jan 27
Waning Crescent
Jan 30
New
Feb 6
First Quarter
Feb 14
Full
Feb 22
Last Quarter

Hourly Weather History & Observations

Time (EST) Temp. Windchill Dew Point Humidity Pressure Visibility Wind Dir Wind Speed Gust Speed Precip Events Conditions
12:53 AM 21.9 °F 17.2 °F 14.0 °F 72% 29.80 in 10.0 mi NW 3.5 mph - N/A   Overcast
1:53 AM 21.9 °F - 16.0 °F 78% 29.78 in 10.0 mi Calm Calm - N/A   Overcast
2:53 AM 21.9 °F 15.7 °F 15.1 °F 75% 29.76 in 10.0 mi NNW 4.6 mph - N/A   Overcast
3:53 AM 21.9 °F 17.2 °F 15.1 °F 75% 29.72 in 10.0 mi West 3.5 mph - N/A   Scattered Clouds
4:53 AM 21.9 °F - 15.1 °F 75% 29.69 in 10.0 mi Calm Calm - N/A   Clear
5:53 AM 21.9 °F - 16.0 °F 78% 29.66 in 10.0 mi Calm Calm - N/A   Mostly Cloudy
6:53 AM 23.0 °F - 16.0 °F 74% 29.65 in 10.0 mi Calm Calm - N/A   Overcast
7:53 AM 27.0 °F - 21.0 °F 78% 29.62 in 8.0 mi Calm Calm - N/A   Overcast
8:53 AM 36.0 °F 30.3 °F 28.9 °F 76% 29.63 in 10.0 mi SSE 6.9 mph - 0.00 in Rain Light Rain
9:53 AM 37.9 °F 32.7 °F 30.9 °F 76% 29.62 in 10.0 mi South 6.9 mph - 0.00 in Rain Light Rain
10:53 AM 39.0 °F 32.3 °F 30.9 °F 73% 29.60 in 10.0 mi South 10.4 mph - 0.00 in   Overcast
11:53 AM 41.0 °F 35.8 °F 28.9 °F 62% 29.60 in 10.0 mi SSW 8.1 mph - N/A   Overcast
12:53 PM 42.1 °F 37.7 °F 27.0 °F 55% 29.61 in 10.0 mi Variable 6.9 mph 19.6 mph N/A   Mostly Cloudy
1:53 PM 42.1 °F 36.6 °F 23.0 °F 47% 29.65 in 10.0 mi West 9.2 mph 20.7 mph N/A   Clear
2:53 PM 39.0 °F 32.3 °F 21.9 °F 50% 29.69 in 10.0 mi WNW 10.4 mph 24.2 mph N/A   Overcast
3:53 PM 33.1 °F 24.9 °F 21.0 °F 61% 29.77 in 10.0 mi NNW 10.4 mph - N/A   Overcast
4:53 PM 30.9 °F 21.7 °F 12.9 °F 47% 29.81 in 10.0 mi NW 11.5 mph 20.7 mph N/A   Overcast
5:53 PM 28.0 °F 18.1 °F 1.9 °F 33% 29.87 in 10.0 mi NNW 11.5 mph 19.6 mph N/A   Mostly Cloudy
6:53 PM 26.1 °F 13.1 °F -4.0 °F 27% 29.91 in 10.0 mi NNW 17.3 mph 23.0 mph N/A   Clear
7:53 PM 25.0 °F 12.6 °F -6.0 °F 26% 29.96 in 10.0 mi NW 15.0 mph - N/A   Clear
8:53 PM 23.0 °F 11.1 °F -7.1 °F 27% 29.97 in 10.0 mi NW 12.7 mph - N/A   Clear
9:53 PM 21.9 °F 10.4 °F -7.1 °F 28% 30.01 in 10.0 mi NW 11.5 mph - N/A   Clear
10:53 PM 21.0 °F 10.6 °F -6.0 °F 30% 30.04 in 10.0 mi NNW 9.2 mph - N/A   Clear
11:53 PM 21.0 °F 11.4 °F -4.0 °F 33% 30.06 in 10.0 mi NW 8.1 mph - N/A   Clear